Prescott, AZ

6:29 AM MST on August 22, 2017 (GMT -0700)
Love

Weather History for KPRC - August, 2012

Change the Weather History Date:

Thursday, August 2, 2012

  Actual Average Record
Temperature  
Mean Temperature 75 °F 75 °F  
Max Temperature 88 °F 88 °F 99 °F (1993)
Min Temperature 62 °F 62 °F 53 °F (1976)
Degree Days  
Heating Degree Days 0    
Month to date heating degree days  
Since 1 July heating degree days  
Cooling Degree Days 10    
Month to date cooling degree days  
Year to date cooling degree days  
Growing Degree Days 25 (Base 50)    
Moisture  
Dew Point 52 °F    
Average Humidity 48    
Maximum Humidity 81    
Minimum Humidity 22    
Precipitation  
Precipitation 0.00 in 0.09 in 1.87 in (2005)
Month to date precipitation 0.17  
Year to date precipitation 7.21  
Sea Level Pressure  
Sea Level Pressure 29.92 in    
Wind  
Wind Speed 5 mph (SSW)    
Max Wind Speed 12 mph    
Max Gust Speed -    
Visibility 10 miles    
Events      
T = Trace of Precipitation, MM = Missing Value Source: NWS Daily Summary

Daily Weather History Graph

Daily Weather History Graph

Search for Another Location

Airport or City:

Trip Planner

Search our weather history database for the weather conditions in past years. The results will help you decide how hot, cold, wet, or windy it might be!

Date:

Astronomy

Aug. 02, 2012 Rise Set
Actual Time 5:40 AM MST 7:30 PM MST
Civil Twilight 5:13 AM MST 7:57 PM MST
Nautical Twilight 4:40 AM MST 8:31 PM MST
Astronomical Twilight 4:04 AM MST 9:06 PM MST
Moon 7:44 PM MST (8/2) 6:18 AM MST (8/2)
Length of Visible Light 14h 44m
Length of Day
13h 49m
Waxing Gibbous, 99% of the Moon is Illuminated
Aug 2
Waxing Gibbous
Aug 9
Last Quarter
Aug 17
New
Aug 24
First Quarter
Aug 31
Full

Hourly Weather History & Observations

Time (MST) Temp. Heat Index Dew Point Humidity Pressure Visibility Wind Dir Wind Speed Gust Speed Precip Events Conditions
12:53 AM 66.0 °F - 55.9 °F 70% 29.97 in 10.0 mi SSW 6.9 mph - N/A   Clear
1:53 AM 64.9 °F - 55.9 °F 73% 29.96 in 10.0 mi South 6.9 mph - N/A   Clear
2:53 AM 64.0 °F - 57.0 °F 78% 29.97 in 10.0 mi Calm Calm - N/A   Clear
3:53 AM 63.0 °F - 57.0 °F 81% 29.96 in 10.0 mi South 4.6 mph - N/A   Clear
4:53 AM 63.0 °F - 55.9 °F 78% 29.96 in 10.0 mi SSW 6.9 mph - N/A   Clear
5:53 AM 62.1 °F - 55.9 °F 80% 29.97 in 10.0 mi SW 3.5 mph - N/A   Clear
6:53 AM 64.9 °F - 57.9 °F 78% 29.97 in 10.0 mi Calm Calm - N/A   Partly Cloudy
7:53 AM 72.0 °F - 57.9 °F 61% 29.98 in 10.0 mi South 3.5 mph - N/A   Partly Cloudy
8:53 AM 78.1 °F - 55.9 °F 46% 29.97 in 10.0 mi Calm Calm - N/A   Partly Cloudy
9:53 AM 81.0 °F 80.8 °F 55.9 °F 42% 29.96 in 10.0 mi ENE 5.8 mph - N/A   Partly Cloudy
10:53 AM 82.0 °F 81.2 °F 53.1 °F 37% 29.96 in 10.0 mi Calm Calm - N/A   Scattered Clouds
11:53 AM 86.0 °F - 51.1 °F 30% 29.94 in 10.0 mi NW 8.1 mph - N/A   Scattered Clouds
12:53 PM 86.0 °F - 45.0 °F 24% 29.92 in 10.0 mi Variable 4.6 mph - N/A   Scattered Clouds
1:53 PM 88.0 °F - 44.1 °F 22% 29.90 in 10.0 mi Calm Calm - N/A   Mostly Cloudy
2:53 PM 88.0 °F - 48.0 °F 25% 29.88 in 10.0 mi WSW 11.5 mph - N/A   Scattered Clouds
3:53 PM 86.0 °F - 48.0 °F 27% 29.87 in 10.0 mi Variable 3.5 mph - N/A   Scattered Clouds
4:53 PM 87.1 °F - 46.9 °F 25% 29.86 in 10.0 mi SW 6.9 mph - N/A   Mostly Cloudy
5:53 PM 86.0 °F - 48.0 °F 27% 29.85 in 10.0 mi South 6.9 mph - N/A   Scattered Clouds
6:53 PM 82.9 °F - 50.0 °F 32% 29.85 in 10.0 mi SSW 8.1 mph - N/A   Clear
7:53 PM 80.1 °F - 50.0 °F 35% 29.85 in 10.0 mi SW 5.8 mph - N/A   Clear
8:53 PM 75.9 °F - 50.0 °F 40% 29.86 in 10.0 mi SSW 5.8 mph - N/A   Clear
9:53 PM 73.9 °F - 51.1 °F 45% 29.87 in 10.0 mi South 3.5 mph - N/A   Clear
10:53 PM 72.0 °F - 52.0 °F 49% 29.88 in 10.0 mi SSW 3.5 mph - N/A   Clear
11:53 PM 71.1 °F - 52.0 °F 51% 29.86 in 10.0 mi South 6.9 mph - N/A   Clear